Location: Rock Island IL
(41.5000°N, 90.5500°W)
Time: 08:57:55
(UTC-05:00)

Daily predictions for brighter satellites

Satellite Brightness Start Highest point End
(mag) Time Altitude Azimuth Time Altitude Azimuth Time Altitude Azimuth
Cosmos 1821 Rocket 4.0 20:03:07 10° S 20:09:12 88° E 20:15:20 10° N
Cosmos 1633 4.3 20:08:10 10° SSW 20:11:36 38° WNW 20:15:02 10° N
Cosmos 1605 Rocket 4.2 20:06:18 10° SSE 20:12:25 54° E 20:18:30 10° NNE
CZ-4B DEB 2.8 20:10:18 10° SSE 20:13:32 66° ENE 20:16:49 10° N
Cosmos 1025 Rocket 4.4 20:10:28 10° NNW 20:14:38 44° W 20:18:44 10° SSW
Tiangong 1 1.2 20:12:29 10° W 20:15:36 68° N 20:18:41 10° E
RESURS DK-1 3.9 20:13:19 10° N 20:16:27 20° NE 20:19:34 10° ESE
Spot 2 Rocket 4.1 20:11:31 10° S 20:16:33 64° WSW 20:21:37 10° NNW
NOSS 7 (H) 4.3 20:13:53 10° SSW 20:17:11 72° ESE 20:20:36 10° NE
Meteor 2-15 4.5 20:11:57 10° N 20:18:02 89° ENE 20:24:06 10° S
Cosmos 1697 Rocket 3.4 20:13:20 10° SSE 20:18:16 32° ESE 20:23:12 10° NE
Cosmos 2208 Rocket 4.2 20:14:29 10° SSW 20:19:48 82° WNW 20:25:15 10° NNE
H-2A R/B 4.0 20:21:26 10° E 20:22:48 11° ENE 20:24:11 10° NE
Iridium 4 Rocket 3.9 20:18:51 10° NNE 20:23:29 36° E 20:27:42 10° SSE
BREEZE-M DEB (TANK) 4.0 20:20:36 10° SW 20:24:21 67° SE 20:37:10 10° ENE
Meteor 2-15 Rocket 4.4 20:18:33 10° N 20:24:40 86° E 20:30:44 10° S
Cosmos 1626 Rocket 3.8 20:20:31 10° N 20:24:47 47° ENE 20:28:59 10° SSE
Cosmos 1892 Rocket 4.4 20:21:40 10° NNW 20:26:04 56° W 20:30:25 10° S
Cosmos 2298 Rocket 4.5 20:21:29 10° N 20:26:36 45° ENE 20:31:40 10° SE
Envisat 4.3 20:23:25 10° ESE 20:27:14 23° ENE 20:31:09 10° NNE
Cosmos 1937 Rocket 4.4 20:23:14 10° N 20:27:55 31° ENE 20:32:04 12° ESE
Cosmos 2278 3.9 20:22:29 10° SSW 20:28:09 78° WNW 20:33:53 10° NNE
Cosmos 1455 Rocket 3.2 20:25:02 10° SSW 20:29:21 76° W 20:33:43 10° N
Cosmos 2084 3.7 20:25:36 10° NNW 20:29:33 50° NE 20:33:09 13° SE
Cosmos 1602 Rocket 3.6 20:30:09 10° N 20:34:36 62° E 20:38:57 10° SSE
Cosmos 220 Rocket 3.9 20:34:25 10° NNW 20:38:39 79° ENE 20:42:51 10° SSE
H-2A R/B 2.8 20:37:04 10° SSE 20:40:57 88° WSW 20:44:55 10° NNW
Lacrosse 5 2.2 20:36:12 10° NW 20:41:10 53° NE 20:44:53 17° ESE
Cosmos 1980 Rocket 2.9 20:36:56 10° SSE 20:41:48 30° ESE 20:46:43 10° NE
Cosmos 2123 Rocket 4.2 20:36:14 10° N 20:42:24 74° W 20:48:33 10° S
Cosmos 2369 4.1 20:37:04 10° SSW 20:42:42 67° WNW 20:48:24 10° NNE
EO 1 Delta rocket 4.1 20:43:37 10° N 20:48:22 84° W 20:53:53 10° SSW
Cosmos 1975 2.8 20:45:25 10° S 20:49:31 89° ESE 20:53:39 10° N
Cosmos 1459 Rocket 4.3 20:45:44 10° SSE 20:51:22 43° E 20:57:05 10° NNE
SPOT 5 4.2 20:49:22 18° E 20:51:27 23° ENE 20:55:11 10° NNE
ERS-1 Rocket 3.3 20:48:21 15° SE 20:52:18 48° ENE 20:57:08 10° N
Cosmos 2150 Rocket 4.0 20:47:13 10° NNW 20:52:21 65° ENE 20:56:29 16° SSE
Lacrosse 5 rocket 2.3 20:51:49 10° WNW 20:55:14 35° SW 20:57:58 14° S
BREEZE-M TANK 3.5 20:42:06 10° WNW 20:55:30 81° NNE 20:58:04 22° ESE
FENGYUN 3A 4.3 20:53:34 10° S 20:58:49 57° W 21:04:06 10° NNW
Cosmos 1656 3.8 20:56:11 10° SSW 21:01:49 82° WNW 21:07:24 10° NNE
Cosmos 2058 Rocket 4.4 21:03:45 22° E 21:03:45 22° E 21:07:08 10° NE
Cosmos 1763 Rocket 3.9 20:59:43 10° SSE 21:04:22 36° ESE 21:09:00 10° NE
SJ-11-01 4.2 21:01:23 17° SSE 21:04:57 69° ENE 21:09:38 10° N
Cosmos 2263 Rocket 4.1 21:04:21 10° NNE 21:07:04 14° NE 21:09:09 11° ENE
Resurs 01 Rocket 4.4 21:04:21 10° SW 21:07:21 18° W 21:10:22 10° NW
Cosmos 1606 Rocket 4.1 21:06:33 28° SE 21:08:04 36° E 21:12:08 10° NNE
Cosmos 1898 Rocket 3.5 21:03:08 10° NNW 21:08:28 85° WSW 21:12:34 17° SSE
CZ-4 DEB 2.6 21:07:23 33° SSE 21:08:38 78° ENE 21:11:48 10° N
DELTA 2 R/B (1) 4.1 21:05:01 10° W 21:10:19 45° SSW 21:13:06 25° SE
Cosmos 1500 3.2 21:06:55 10° S 21:10:40 79° W 21:14:27 10° N
Cosmos 2227 Rocket 3.7 21:06:12 10° NW 21:11:16 35° WSW 21:16:18 10° SSW
Cosmos 2322 Rocket 3.6 21:16:55 20° ENE 21:16:55 20° ENE 21:19:35 10° NE
YAOGAN 6 4.0 21:16:13 23° ENE 21:16:13 23° ENE 21:18:59 10° NNE
Cosmos 1340 2.8 21:16:05 10° N 21:19:48 50° ENE 21:20:21 46° ESE
OAO 2 Rocket 3.9 21:16:48 10° WSW 21:21:29 39° S 21:22:50 33° SSE
Cosmos 468 Rocket 4.2 21:16:45 10° SSW 21:21:51 72° WNW 21:27:00 10° NNE
Meteor 1-21 4.3 21:20:29 10° N 21:26:14 64° ENE 21:29:03 31° SSE
Cosmos 2297 Rocket 3.5 21:21:15 10° NW 21:26:22 36° WSW 21:31:29 10° S
ALOS 4.3 21:22:46 10° SSW 21:26:39 26° W 21:30:33 10° NW
Cosmos 1939 Rocket 2.8 21:25:01 34° SSE 21:26:47 89° ENE 21:30:59 10° NNW
USA 186 4.3 21:24:52 10° SW 21:27:05 18° W 21:29:13 10° NW
Cosmos 841 Rocket 3.5 21:23:26 14° S 21:27:44 54° ESE 21:32:49 10° NNE
Cosmos 2360 4.3 21:23:53 10° S 21:29:25 54° ESE 21:35:00 10° NNE
Cosmos 1802 Rocket 4.0 21:23:14 10° S 21:29:36 76° E 21:36:02 10° N
Cosmos 1726 Rocket 3.6 21:30:19 48° SE 21:31:04 55° E 21:35:22 10° NNE
Cosmos 1814 Rocket 4.3 21:28:13 10° SSW 21:33:32 69° WNW 21:38:50 10° NNE
MetOp-A 4.3 21:33:48 40° ESE 21:35:23 55° ENE 21:40:36 10° N
Cosmos 2227 4.2 21:29:43 10° NNW 21:35:28 68° ENE 21:37:26 41° SE
Cosmos 2016 Rocket 3.8 21:35:00 18° S 21:39:44 76° E 21:45:56 10° N
ASTEX 1 3.3 21:39:38 10° NNE 21:44:38 65° E 21:45:35 53° SE
Cosmos 1825 Rocket 3.8 21:40:59 10° NNW 21:45:23 68° W 21:46:50 40° SSW
Cosmos 1743 3.7 21:48:12 20° SW 21:50:35 47° W 21:54:24 10° N
Cosmos 2173 Rocket 4.4 21:45:42 10° SSW 21:52:00 65° W 21:58:19 10° N
Tiangong 1 2.8 21:49:02 10° W 21:50:47 29° W 21:50:47 29° W
BREEZE-M DEB (TANK) 2.3 21:51:14 10° NW 21:53:27 70° NNW 21:53:27 70° NNW
RESURS DK-1 3.5 21:50:48 10° NW 21:54:38 37° WSW 21:55:34 32° SW
Cosmos 1953 Rocket 3.7 21:51:56 10° NNW 21:56:23 71° W 21:57:08 57° SSW
H-2A R/B 2.1 21:57:54 61° SW 21:58:15 65° WSW 22:02:23 10° NNW
Cosmos 1697 Rocket 4.1 21:56:55 10° SW 22:02:07 37° WNW 22:07:21 10° N
USA 245 4.4 22:02:14 54° SE 22:03:40 73° ENE 22:09:58 10° N
SL-08 RB Rocket 4.4 22:05:54 44° NE 22:05:54 44° NE 22:09:39 10° N
Envisat 3.9 22:03:39 27° SSW 22:05:56 44° W 22:10:49 10° NNW
Cosmos 2228 3.8 22:07:21 41° NNE 22:07:21 41° NNE 22:10:14 10° NNE
Cosmos 1864 Rocket 4.3 22:06:14 48° S 22:08:03 83° E 22:14:12 10° N
SL-16 R/B 2.4 22:13:10 54° ENE 22:13:10 54° ENE 22:17:48 10° NNE
NOAA 11 4.0 22:13:22 72° E 22:13:37 74° ENE 22:19:05 10° N
Cosmos 1758 Rocket 4.1 22:10:43 10° NNW 22:14:56 50° W 22:15:05 50° WSW
ARGOS 3.0 22:16:23 77° E 22:16:28 77° ENE 22:21:53 10° N
Tsikada Rocket 4.0 22:11:27 10° N 22:17:55 87° W 22:19:18 58° S
SL-19 R/B 4.0 22:16:11 10° NNE 22:21:39 89° ESE 22:21:42 88° SSE
CZ-4B R/B 4.2 22:16:53 10° NNE 22:20:03 41° NNE 22:20:03 41° NNE
Cosmos 1842 4.5 22:18:26 10° NNW 22:21:26 41° WNW 22:21:26 41° WNW
Lacrosse 5 3.3 22:19:38 10° WNW 22:23:53 27° WSW 22:24:05 27° SW
Cosmos 1980 Rocket 3.5 22:20:21 10° SW 22:25:38 39° WNW 22:30:59 10° N
Cosmos 2360 Rocket 4.3 22:30:08 14° NE 22:30:08 14° NE 22:31:03 10° NE
H-2A R/B 2.8 22:27:30 40° NNE 22:27:30 40° NNE 22:31:03 10° N
SPOT 5 3.8 22:28:37 39° WSW 22:29:16 41° W 22:33:51 10° NNW
Meteor 2-17 Rocket 4.3 22:36:21 89° SW 22:36:23 89° WSW 22:42:28 10° N
Cosmos 1816 Rocket 4.5 22:30:39 10° N 22:37:02 78° W 22:37:39 71° SSW
BREEZE-M DEB (TANK) 3.9 22:24:46 10° SW 22:37:17 83° SSE 22:37:37 79° E
SPOT 1/Viking Rocket 4.1 22:45:54 53° W 22:45:54 53° W 22:50:44 10° NNW
Cosmos 2263 Rocket 2.6 22:46:21 10° NNW 22:50:51 58° N 22:50:51 58° N
Terra 3.1 22:54:47 36° N 22:54:47 36° N 22:57:38 10° N
Meteor 2-5 Rocket 4.1 22:50:40 10° N 22:55:39 65° N 22:55:39 65° N
Cosmos 2322 Rocket 2.8 22:58:39 51° WNW 22:59:00 52° WNW 23:04:30 10° NNE
Cosmos 2233 Rocket 4.3 23:03:44 58° W 23:03:59 58° W 23:10:10 10° N
USA 215 3.3 23:06:05 71° NNE 23:06:05 71° NNE 23:12:29 10° NW
ATLAS CENTAUR R/B 4.3 23:29:28 63° ESE 23:29:28 63° ESE 23:49:21 10° NE
Cosmos 2278 Rocket 4.1 23:37:15 10° N 23:40:20 22° NNE 23:40:20 22° NNE
